DW4212 La Cabrera ES current weather conditions

sailwx.info

Wind from 333 at 5 knots gusting 9

Air temperature 0.6° C
Dewpoint -7.0° C

Last reported at 2018-Feb-22 20:09 UTC.
Time now 2018-Feb-22 21:06 UTC

Location: N 40°53' W 003°35'.
View on Google Maps.

See reports from other nearby stations

  
Tides and Currents Weather Stations Pressure Air Temp Water Temp Dewpoint Dewpoint Depression Visibility Wind Speed Wind Dir Waves Ship Positions
date/time (UTC)wind fromknots sea level pressurealtimeterstation pressurevisibilityair tempwater tempwave heightnotes
2018-Feb-22 20:09 333 5 gusting 9 0.6
2018-Feb-22 19:59 323 4 gusting 7 0.6
2018-Feb-22 19:49 325 1 gusting 10 1.1
2018-Feb-22 19:39 340 1 gusting 12 1.1
2018-Feb-22 19:30 067 0 gusting 12 1.1
2018-Feb-22 19:19 005 2 gusting 7 1.7
2018-Feb-22 19:09 313 3 gusting 10 1.7
2018-Feb-22 18:49 005 0 gusting 8 2.2
2018-Feb-22 18:39 015 0 gusting 12 2.8
2018-Feb-22 18:29 325 1 gusting 13 2.8
2018-Feb-22 18:19 308 7 gusting 11 3.3
2018-Feb-22 18:09 342 5 gusting 12 3.3
2018-Feb-22 17:59 323 6 gusting 12 3.3
2018-Feb-22 17:49 336 4 gusting 10 3.9
2018-Feb-22 17:39 333 3 gusting 10 3.9
2018-Feb-22 17:29 350 5 gusting 11 3.9
2018-Feb-22 17:19 313 3 gusting 8 4.4
2018-Feb-22 17:09 360 3 gusting 9 4.4
2018-Feb-22 16:49 316 6 gusting 13 5.0
2018-Feb-22 16:39 317 6 gusting 11 5.0
2018-Feb-22 16:29 342 7 gusting 13 5.0
2018-Feb-22 16:19 005 6 gusting 14 5.0
2018-Feb-22 16:09 342 5 gusting 12 5.6
2018-Feb-22 15:59 355 7 gusting 13 5.6
2018-Feb-22 15:49 318 5 gusting 12 5.6
2018-Feb-22 15:39 348 5 gusting 10 5.6
2018-Feb-22 15:29 355 5 gusting 9 5.6
2018-Feb-22 15:19 009 5 gusting 13 5.6
2018-Feb-22 15:09 023 4 gusting 12 5.0
2018-Feb-22 14:59 013 6 gusting 13 5.0
2018-Feb-22 14:50 041 9 gusting 15 5.0
2018-Feb-22 14:39 360 8 gusting 17 4.4
2018-Feb-22 14:29 355 7 gusting 14 4.4
2018-Feb-22 14:19 327 6 gusting 14 4.4
2018-Feb-22 14:09 016 6 gusting 13 4.4
2018-Feb-22 13:59 324 5 gusting 14 4.4
2018-Feb-22 13:49 013 7 gusting 14 4.4
2018-Feb-22 13:39 343 6 gusting 12 4.4
2018-Feb-22 13:29 049 6 gusting 13 4.4
2018-Feb-22 13:19 346 4 gusting 16 4.4
2018-Feb-22 13:09 335 6 gusting 13 3.9
2018-Feb-22 12:49 306 7 gusting 14 3.9
2018-Feb-22 12:39 340 9 gusting 16 3.9
2018-Feb-22 12:29 350 4 gusting 13 3.9
2018-Feb-22 12:19 330 8 gusting 16 3.3
2018-Feb-22 12:09 360 7 gusting 14 3.3
2018-Feb-22 12:01 341 8 gusting 15 3.3
2018-Feb-22 11:49 319 6 gusting 14 3.3
2018-Feb-22 11:39 009 9 gusting 19 3.3
2018-Feb-22 11:29 010 6 gusting 16 3.3
2018-Feb-22 11:19 325 6 gusting 17 2.8
2018-Feb-22 11:09 355 8 gusting 18 2.8
2018-Feb-22 10:59 346 7 gusting 17 2.8
2018-Feb-22 10:49 017 8 gusting 17 3.3
2018-Feb-22 10:39 019 6 gusting 14 3.3
2018-Feb-22 10:29 017 6 gusting 17 3.3
2018-Feb-22 10:19 051 6 gusting 13 3.3
2018-Feb-22 10:09 031 5 gusting 12 2.8
2018-Feb-22 10:00 360 6 gusting 16 2.2
2018-Feb-22 09:49 005 4 gusting 13 2.2
2018-Feb-22 09:39 031 6 gusting 11 2.8
2018-Feb-22 09:29 360 6 gusting 13 2.8
2018-Feb-22 09:19 355 6 gusting 10 2.8
2018-Feb-22 09:09 342 5 gusting 12 2.2
2018-Feb-22 08:59 040 6 gusting 10 1.1
2018-Feb-22 08:49 348 6 gusting 13 0.6
2018-Feb-22 08:39 360 6 gusting 13 0.6
2018-Feb-22 08:29 040 6 gusting 11 -0.0
2018-Feb-22 08:19 028 3 gusting 12 -0.6
2018-Feb-22 08:09 350 5 gusting 11 -1.1
2018-Feb-22 07:59 355 3 gusting 11 -1.1
2018-Feb-22 07:49 333 7 gusting 12 -1.7
2018-Feb-22 07:39 005 4 gusting 8 -2.2
2018-Feb-22 07:29 350 1 gusting 6 -2.2
2018-Feb-22 07:19 348 3 gusting 7 -2.2
2018-Feb-22 07:09 306 5 gusting 11 -2.2
2018-Feb-22 06:59 329 6 gusting 11 -2.2
2018-Feb-22 06:39 331 7 gusting 14 -2.2
2018-Feb-22 06:19 013 4 gusting 11 -2.2
2018-Feb-22 06:09 348 6 gusting 8 -1.7
2018-Feb-22 05:59 355 6 gusting 10 -1.7
2018-Feb-22 05:49 005 3 gusting 10 -1.7
2018-Feb-22 05:39 023 5 gusting 13 -1.1
2018-Feb-22 05:29 335 7 gusting 12 -1.7
2018-Feb-22 05:19 316 6 gusting 11 -1.1
2018-Feb-22 05:09 333 6 gusting 13 -1.1
2018-Feb-22 04:59 015 4 gusting 9 -1.1
2018-Feb-22 04:49 019 1 gusting 6 -1.1
2018-Feb-22 04:39 053 0 gusting 6 -1.1
2018-Feb-22 04:29 031 2 gusting 6 -1.1
2018-Feb-22 04:19 033 2 gusting 9 -1.1
2018-Feb-22 04:09 355 4 gusting 7 -1.1
2018-Feb-22 03:59 023 3 gusting 5 -1.1
2018-Feb-22 03:49 027 0 gusting 6 -1.1
2018-Feb-22 03:39 345 0 gusting 4 -1.7
2018-Feb-22 03:29 011 -1.7
2018-Feb-22 03:19 026 3 gusting 6 -1.7
2018-Feb-22 03:09 013 4 gusting 6 -1.7
2018-Feb-22 02:59 012 4 gusting 6 -2.2
2018-Feb-22 02:49 013 4 gusting 7 -2.2
2018-Feb-22 02:39 012 5 gusting 7 -2.2
2018-Feb-22 02:29 011 5 gusting 8 -2.2
2018-Feb-22 02:19 023 2 gusting 7 -2.2
2018-Feb-22 02:09 009 2 gusting 5 -2.2
2018-Feb-22 01:59 005 0 gusting 5 -2.2
2018-Feb-22 01:49 010 3 gusting 7 -2.2
2018-Feb-22 01:39 009 3 gusting 6 -2.2
2018-Feb-22 01:29 009 2 gusting 6 -1.7
2018-Feb-22 01:19 350 5 gusting 7 -1.7
2018-Feb-22 01:09 011 3 gusting 8 -1.7
2018-Feb-22 00:59 345 2 gusting 10 -1.7
2018-Feb-22 00:49 016 6 gusting 12 -1.1
2018-Feb-22 00:39 360 6 gusting 11 -1.1
2018-Feb-22 00:29 005 4 gusting 12 -1.1
2018-Feb-22 00:19 044 5 gusting 11 -1.1
2018-Feb-22 00:09 350 6 gusting 9 -1.1
2018-Feb-21 23:59 009 4 gusting 8 -1.1
2018-Feb-21 23:49 340 4 gusting 7 -1.1
2018-Feb-21 23:39 005 5 gusting 8 -1.1
2018-Feb-21 23:29 355 3 gusting 11 -0.6
2018-Feb-21 23:19 327 6 gusting 10 -0.6
2018-Feb-21 23:09 024 6 gusting 9 -0.6
2018-Feb-21 22:59 017 5 gusting 9 -0.6
2018-Feb-21 22:49 360 0 gusting 6 -0.6
2018-Feb-21 22:39 026 1 gusting 6 -0.6
2018-Feb-21 22:29 341 2 gusting 9 -0.6
2018-Feb-21 22:19 327 4 gusting 9 -0.6
2018-Feb-21 22:09 349 5 gusting 12 -0.6
2018-Feb-21 21:59 310 4 gusting 6 -0.6
2018-Feb-21 21:49 336 0 gusting 6 -0.6
2018-Feb-21 21:39 355 1 gusting 9 -0.0
2018-Feb-21 21:29 318 4 gusting 11 -0.0
2018-Feb-21 21:19 042 2 gusting 7 -0.0
2018-Feb-21 21:09 351 1 gusting 7 0.6
2018-Feb-21 20:59 323 5 gusting 9 0.6
2018-Feb-21 20:49 341 5 gusting 12 0.6
2018-Feb-21 20:39 005 5 gusting 13 0.6
2018-Feb-21 20:29 015 7 gusting 14 0.6
2018-Feb-21 20:19 315 8 gusting 14 0.6
2018-Feb-21 20:09 005 5 gusting 13 1.1
2018-Feb-21 19:59 013 4 gusting 13 1.1
2018-Feb-21 19:49 351 4 gusting 14 1.1
2018-Feb-21 19:29 312 6 gusting 13 1.1
2018-Feb-21 19:19 070 4 gusting 13 1.1
2018-Feb-21 19:09 348 5 gusting 15 1.7
2018-Feb-21 18:59 316 4 gusting 10 1.7
2018-Feb-21 18:49 011 6 gusting 18 1.7
2018-Feb-21 18:39 022 6 gusting 13 2.2
2018-Feb-21 18:19 010 5 gusting 13 2.2
2018-Feb-21 17:59 323 7 gusting 18 2.8
2018-Feb-21 17:49 323 10 gusting 17 3.3
2018-Feb-21 17:40 308 7 gusting 13 3.3
2018-Feb-21 17:29 339 6 gusting 13 3.9
2018-Feb-21 17:19 297 1 gusting 12 4.4
2018-Feb-21 17:09 327 6 gusting 17 4.4
2018-Feb-21 16:59 313 10 gusting 17 4.4
2018-Feb-21 16:39 294 12 gusting 21 5.0
2018-Feb-21 16:29 010 13 gusting 21 5.0
2018-Feb-21 16:19 338 14 gusting 23 5.6
2018-Feb-21 16:09 348 13 gusting 20 5.6
2018-Feb-21 15:59 025 9 gusting 26 5.6
2018-Feb-21 15:49 330 9 gusting 16 6.1
2018-Feb-21 15:39 317 6 gusting 15 6.1
2018-Feb-21 15:29 355 6 gusting 19 6.1
2018-Feb-21 15:19 339 10 gusting 19 6.1
2018-Feb-21 14:39 005 12 gusting 19 6.1
2018-Feb-21 14:29 325 11 gusting 19 6.1
2018-Feb-21 14:19 013 8 gusting 15 6.7
2018-Feb-21 13:59 038 10 gusting 16 6.7
2018-Feb-21 13:49 346 6 gusting 14 6.1
2018-Feb-21 13:39 339 7 gusting 17 6.1
2018-Feb-21 13:29 345 10 gusting 18 6.1
2018-Feb-21 13:19 338 6 gusting 16 6.1
2018-Feb-21 13:09 065 9 gusting 17 6.1
2018-Feb-21 12:59 021 9 gusting 17 6.1
2018-Feb-21 12:49 005 9 gusting 18 6.1
2018-Feb-21 12:39 040 8 gusting 16 5.6
2018-Feb-21 12:29 340 6 gusting 19 6.1
2018-Feb-21 12:19 015 8 gusting 16 5.6
2018-Feb-21 12:09 009 6 gusting 21 5.6
2018-Feb-21 11:59 355 8 gusting 17 5.6
2018-Feb-21 11:49 349 7 gusting 23 5.0
2018-Feb-21 11:39 005 6 gusting 20 5.0
2018-Feb-21 11:19 325 7 gusting 23 5.0
2018-Feb-21 11:09 317 7 gusting 20 5.0
2018-Feb-21 10:49 319 10 gusting 20 4.4
2018-Feb-21 10:39 350 6 gusting 21 4.4
2018-Feb-21 10:29 329 10 gusting 19 4.4
2018-Feb-21 10:19 345 6 gusting 16 4.4
2018-Feb-21 10:09 360 6 gusting 14 3.9
2018-Feb-21 09:59 344 6 gusting 14 3.9
2018-Feb-21 09:49 284 10 gusting 16 3.9
2018-Feb-21 09:39 360 7 gusting 18 3.3
2018-Feb-21 09:29 321 6 gusting 19 3.3
2018-Feb-21 09:19 030 6 gusting 13 3.3
2018-Feb-21 09:09 355 6 gusting 19 3.3
2018-Feb-21 08:59 294 7 gusting 15 2.8
2018-Feb-21 08:49 320 7 gusting 16 2.8
2018-Feb-21 08:39 046 6 gusting 16 2.8
2018-Feb-21 08:29 012 5 gusting 19 2.8
2018-Feb-21 08:19 009 7 gusting 25 2.2
2018-Feb-21 08:09 349 12 gusting 19 2.2
2018-Feb-21 07:59 320 10 gusting 19 2.2
2018-Feb-21 07:49 355 10 gusting 19 2.8
2018-Feb-21 07:39 026 11 gusting 25 2.8
2018-Feb-21 07:29 328 8 gusting 19 2.8
2018-Feb-21 07:19 026 10 gusting 19 2.8
2018-Feb-21 07:09 322 9 gusting 18 2.8
2018-Feb-21 06:59 340 8 gusting 14 2.8
2018-Feb-21 06:49 015 6 gusting 14 2.8
2018-Feb-21 06:39 360 8 gusting 19 2.8
2018-Feb-21 06:29 355 9 gusting 19 2.8
2018-Feb-21 06:19 347 12 gusting 19 2.8
2018-Feb-21 06:09 315 11 gusting 18 2.8
2018-Feb-21 05:59 334 6 gusting 15 2.8
2018-Feb-21 05:49 043 5 gusting 13 3.3
2018-Feb-21 05:39 345 5 gusting 17 3.3
2018-Feb-21 05:29 325 6 gusting 12 3.3
2018-Feb-21 05:19 041 1 gusting 10 3.9
2018-Feb-21 05:09 028 7 gusting 12 3.9
2018-Feb-21 04:59 329 1 gusting 7 3.9
2018-Feb-21 04:49 323 0 gusting 11 3.9
2018-Feb-21 04:39 067 5 gusting 16 3.9
2018-Feb-21 04:29 297 0 gusting 8 3.9
2018-Feb-21 04:19 010 6 gusting 16 3.9
2018-Feb-21 04:09 355 8 gusting 26 3.9
2018-Feb-21 03:59 015 6 gusting 22 3.9
2018-Feb-21 03:49 309 3 gusting 13 3.9
2018-Feb-21 03:40 309 4 gusting 17 3.9
2018-Feb-21 03:29 019 1 gusting 6 3.9
2018-Feb-21 03:19 038 2 gusting 8 3.9
2018-Feb-21 03:09 005 7 gusting 15 3.9
2018-Feb-21 02:59 347 6 gusting 13 3.9
2018-Feb-21 02:49 337 8 gusting 13 3.9
2018-Feb-21 02:39 334 10 gusting 20 3.9
2018-Feb-21 02:29 325 13 gusting 25 3.9
2018-Feb-21 02:19 355 13 gusting 20 3.9
2018-Feb-21 02:09 345 13 gusting 20 3.3
2018-Feb-21 01:59 341 13 gusting 22 3.9
2018-Feb-21 01:49 005 13 gusting 21 3.9
2018-Feb-21 01:39 292 11 gusting 19 3.9
2018-Feb-21 01:29 313 11 gusting 18 3.9
2018-Feb-21 01:19 315 8 gusting 19 3.9
2018-Feb-21 01:09 346 6 gusting 17 3.9
2018-Feb-21 00:59 339 5 gusting 15 3.9
2018-Feb-21 00:49 015 6 gusting 15 3.9
2018-Feb-21 00:39 337 8 gusting 15 3.9
2018-Feb-21 00:29 322 8 gusting 16 3.9
2018-Feb-21 00:19 340 8 gusting 15 3.9
2018-Feb-21 00:09 321 7 gusting 17 3.9
2018-Feb-20 23:59 349 284 gusting 284 4.4
2018-Feb-20 23:49 315 12 gusting 19 4.4
2018-Feb-20 23:39 297 12 gusting 24 4.4
2018-Feb-20 23:29 350 13 gusting 29 4.4
2018-Feb-20 23:19 342 13 gusting 26 4.4
2018-Feb-20 23:09 343 12 gusting 25 4.4
2018-Feb-20 22:59 302 13 gusting 19 4.4
2018-Feb-20 22:49 005 9 gusting 15 4.4
2018-Feb-20 22:39 019 7 gusting 15 5.0
2018-Feb-20 22:29 342 8 gusting 16 5.0
2018-Feb-20 22:09 309 6 gusting 14 4.4
2018-Feb-20 21:59 342 7 gusting 16 5.0
2018-Feb-20 21:49 360 6 gusting 14 5.0
2018-Feb-20 21:39 347 4 gusting 11 5.0
2018-Feb-20 21:29 307 6 gusting 12 5.0
2018-Feb-20 21:19 047 5 gusting 17 5.0
2018-Feb-20 21:09 333 0 gusting 11 5.0